CW7400 Weather Reports


Display with metric or nautical units.
time (UTC)temp
F
wind
direction
speed
MPH
gust
MPH
rain 1hr
in
rain 24hr
in
rain mn
in
humidity
%
barometer
mb
20260510151806 82 0 0.0 2.0 0.00 0.00 0.00 47 1016.0
20260510150906 81 0 0.0 2.0 0.00 0.00 0.00 52 1015.8
20260510150028 80 238 3.0 6.0 0.00 0.00 0.00 53 1015.8
20260510145407 80 0 0.0 6.0 0.00 0.00 0.00 55 1015.7
20260510144506 79 0 0.0 4.0 0.00 0.00 0.00 56 1015.8
20260510143627 78 0 0.0 2.0 0.00 0.00 0.00 59 1015.8
20260510142706 78 0 0.0 4.0 0.00 0.00 0.00 59 1015.8
20260510141806 77 0 0.0 4.0 0.00 0.00 0.00 61 1015.8
20260510140906 77 0 0.0 2.0 0.00 0.00 0.00 63 1015.8
20260510140006 76 0 0.0 4.0 0.00 0.00 0.00 65 1015.8
20260510135406 75 0 0.0 4.0 0.00 0.00 0.00 63 1015.9
20260510134506 75 0 0.0 2.0 0.00 0.00 0.00 65 1015.9
20260510133627 75 0 0.0 2.0 0.00 0.00 0.00 68 1015.8
20260510132706 73 0 0.0 2.0 0.00 0.00 0.00 71 1015.6
20260510131806 72 0 0.0 4.0 0.00 0.00 0.00 75 1015.8
20260510130927 72 0 0.0 2.0 0.00 0.00 0.00 76 1015.7
20260510130006 71 0 0.0 2.0 0.00 0.00 0.00 81 1015.5
20260510125406 69 0 0.0 2.0 0.00 0.00 0.00 82 1015.4
20260510124506 69 0 0.0 0.0 0.00 0.00 0.00 86 1015.3
20260510123627 67 0 0.0 0.0 0.00 0.00 0.00 88 1015.3
20260510122706 66 0 0.0 0.0 0.00 0.00 0.00 94 1015.2
20260510121827 64 0 0.0 0.0 0.00 0.00 0.00 95 1015.2
20260510120906 62 0 0.0 0.0 0.00 0.00 0.00 95 1015.0
20260510120028 62 0 0.0 0.0 0.00 0.00 0.00 95 1015.1
20260510115406 62 0 0.0 0.0 0.00 0.00 0.00 95 1014.9
20260510114506 61 0 0.0 0.0 0.00 0.00 0.00 95 1014.8
20260510113627 61 0 0.0 0.0 0.00 0.00 0.00 95 1014.7
20260510112706 61 0 0.0 0.0 0.00 0.00 0.00 95 1014.5
20260510111806 60 0 0.0 0.0 0.00 0.00 0.00 95 1014.4
20260510110906 60 0 0.0 0.0 0.00 0.00 0.00 95 1014.3
20260510110006 60 0 0.0 0.0 0.00 0.00 0.00 95 1014.2
20260510105406 60 0 0.0 0.0 0.00 0.00 0.00 95 1014.1
20260510104506 59 0 0.0 0.0 0.00 0.00 0.00 95 1013.9
20260510103606 59 0 0.0 0.0 0.00 0.00 0.00 95 1014.0
20260510102706 59 0 0.0 0.0 0.00 0.00 0.00 95 1013.8
20260510101806 59 0 0.0 0.0 0.00 0.00 0.00 94 1013.6
20260510100906 59 0 0.0 0.0 0.00 0.00 0.00 94 1013.4
20260510100006 59 0 0.0 0.0 0.00 0.00 0.00 94 1013.2
20260510095406 59 0 0.0 0.0 0.00 0.00 0.00 94 1013.2
20260510094506 59 0 0.0 0.0 0.00 0.00 0.00 94 1013.0
20260510093606 59 0 0.0 0.0 0.00 0.00 0.00 94 1012.9
20260510092706 60 0 0.0 0.0 0.00 0.00 0.00 94 1012.8
20260510091806 60 0 0.0 0.0 0.00 0.00 0.00 94 1012.9
20260510090906 60 0 0.0 0.0 0.00 0.00 0.00 94 1012.8
20260510090006 60 0 0.0 0.0 0.00 0.00 0.00 94 1012.6
20260510085427 60 0 0.0 0.0 0.00 0.00 0.00 94 1012.6
20260510084506 60 0 0.0 0.0 0.00 0.00 0.00 94 1012.6
20260510083606 60 0 0.0 0.0 0.00 0.00 0.00 94 1012.5
20260510082706 60 0 0.0 0.0 0.00 0.00 0.00 94 1012.4
20260510081806 60 0 0.0 0.0 0.00 0.00 0.00 94 1012.3
20260510080927 60 0 0.0 0.0 0.00 0.00 0.00 94 1012.4
20260510080027 60 0 0.0 0.0 0.00 0.00 0.00 94 1012.3
20260510075406 60 0 0.0 0.0 0.00 0.00 0.00 94 1012.3
20260510074527 60 0 0.0 0.0 0.00 0.00 0.00 94 1012.3
20260510073606 60 0 0.0 0.0 0.00 0.00 0.00 94 1012.3
20260510072706 60 0 0.0 0.0 0.00 0.00 0.00 94 1012.0
20260510071806 60 0 0.0 0.0 0.00 0.00 0.00 94 1012.0
20260510070927 60 0 0.0 0.0 0.00 0.00 0.00 94 1012.0
20260510070006 60 0 0.0 0.0 0.00 0.00 0.00 94 1012.1
20260510065427 60 0 0.0 0.0 0.00 0.00 0.00 94 1012.2
20260510064506 60 0 0.0 0.0 0.00 0.00 0.00 94 1012.3
20260510063606 60 0 0.0 0.0 0.00 0.00 0.00 93 1012.3
20260510062727 60 0 0.0 0.0 0.00 0.00 0.00 93 1012.2
20260510061806 60 0 0.0 0.0 0.00 0.00 0.00 93 1012.0
20260510060906 60 0 0.0 0.0 0.00 0.00 0.00 93 1012.0
20260510060006 60 0 0.0 0.0 0.00 0.00 0.00 93 1012.2
20260510055406 60 0 0.0 0.0 0.00 0.00 0.00 93 1012.2
20260510054527 60 0 0.0 0.0 0.00 0.00 0.00 93 1012.2
20260510053606 61 0 0.0 0.0 0.00 0.00 0.00 93 1012.4
20260510052706 61 0 0.0 0.0 0.00 0.00 0.00 93 1012.5
20260510051806 61 0 0.0 0.0 0.00 0.00 0.00 93 1012.6
20260510050906 61 0 0.0 0.0 0.00 0.00 0.00 93 1012.7
20260510050006 61 0 0.0 0.0 0.00 0.00 0.00 93 1012.6
20260510045406 61 0 0.0 0.0 0.00 0.00 0.00 93 1012.6
20260510044506 61 0 0.0 0.0 0.00 0.00 0.00 92 1012.7
20260510043627 61 0 0.0 0.0 0.00 0.00 0.00 92 1012.8
20260510042727 61 0 0.0 0.0 0.00 0.00 0.00 92 1012.7
20260510041806 61 0 0.0 0.0 0.00 0.00 0.00 92 1012.7
20260510040906 61 0 0.0 0.0 0.00 0.00 0.00 91 1012.7
20260510040006 61 0 0.0 0.0 0.00 0.00 0.00 91 1012.7
20260510035406 61 0 0.0 0.0 0.00 0.00 0.00 91 1012.6
20260510034506 61 0 0.0 0.0 0.00 0.00 0.00 91 1012.6
20260510033606 61 0 0.0 0.0 0.00 0.00 0.00 91 1012.6
20260510032706 61 0 0.0 0.0 0.00 0.00 0.00 91 1012.6
20260510031827 62 0 0.0 0.0 0.00 0.00 0.00 91 1012.4
20260510030927 62 0 0.0 0.0 0.00 0.00 0.00 90 1012.4
20260510030006 62 0 0.0 0.0 0.00 0.00 0.00 90 1012.4
20260510025406 62 0 0.0 0.0 0.00 0.00 0.00 90 1012.3
20260510024506 62 0 0.0 0.0 0.00 0.00 0.00 90 1012.4
20260510023606 62 0 0.0 0.0 0.00 0.00 0.00 90 1012.3
20260510022706 62 0 0.0 0.0 0.00 0.00 0.00 90 1012.2
20260510021806 62 0 0.0 0.0 0.00 0.00 0.00 90 1012.1
20260510020906 63 0 0.0 0.0 0.00 0.00 0.00 89 1012.1
20260510020006 63 0 0.0 0.0 0.00 0.00 0.00 89 1012.0
20260510015406 63 0 0.0 0.0 0.00 0.00 0.00 88 1012.0
20260510014506 63 0 0.0 0.0 0.00 0.00 0.00 87 1012.0
20260510013606 64 0 0.0 0.0 0.00 0.00 0.00 88 1011.6
20260510012706 64 0 0.0 0.0 0.00 0.00 0.00 87 1011.5
20260510011806 64 0 0.0 0.0 0.00 0.00 0.00 86 1011.4
20260510010906 65 0 0.0 0.0 0.00 0.00 0.00 86 1011.3
20260510010006 65 0 0.0 0.0 0.00 0.00 0.00 85 1011.2
20260510005406 66 0 0.0 0.0 0.00 0.00 0.00 85 1011.2
20260510004506 66 0 0.0 0.0 0.00 0.00 0.00 84 1011.1
20260510003606 67 0 0.0 0.0 0.00 0.00 0.00 83 1011.1
20260510002706 67 0 0.0 0.0 0.00 0.00 0.00 83 1011.0
20260510001806 68 0 0.0 0.0 0.00 0.00 0.00 82 1011.0
20260510000927 68 0 0.0 0.0 0.00 0.00 0.00 81 1011.0
20260510000006 69 0 0.0 0.0 0.00 0.00 0.00 80 1010.8
20260509235406 70 0 0.0 0.0 0.00 0.00 0.00 79 1010.8
20260509234527 70 0 0.0 0.0 0.00 0.00 0.00 77 1010.8
20260509233627 71 0 0.0 2.0 0.00 0.00 0.00 77 1010.6
20260509232706 72 0 0.0 2.0 0.00 0.00 0.00 76 1010.4
20260509231806 72 0 0.0 0.0 0.00 0.00 0.00 75 1010.5
20260509230906 72 0 0.0 2.0 0.00 0.00 0.00 74 1010.3
20260509230006 72 0 0.0 4.0 0.00 0.00 0.00 74 1010.2
20260509225406 73 0 0.0 4.0 0.00 0.00 0.00 73 1010.2
20260509224506 73 0 0.0 2.0 0.00 0.00 0.00 72 1010.0
20260509223606 73 0 0.0 6.0 0.00 0.00 0.00 72 1010.1
20260509222706 74 0 0.0 0.0 0.00 0.00 0.00 72 1010.2
20260509221805 74 0 0.0 2.0 0.00 0.00 0.00 72 1010.2
20260509220906 74 0 0.0 2.0 0.00 0.00 0.00 71 1010.5
20260509220006 74 0 0.0 6.0 0.00 0.00 0.00 71 1010.3
20260509215406 74 0 0.0 6.0 0.00 0.00 0.00 71 1010.3
20260509214505 74 0 0.0 4.0 0.00 0.00 0.00 71 1010.3
20260509213606 73 0 0.0 6.0 0.00 0.00 0.00 71 1010.2
20260509212706 74 0 0.0 2.0 0.00 0.00 0.00 69 1010.2
20260509211806 74 0 0.0 4.0 0.00 0.00 0.00 71 1010.1
20260509210906 74 0 0.0 8.0 0.00 0.00 0.00 71 1010.0
20260509210026 74 0 0.0 2.0 0.00 0.00 0.00 71 1009.9
20260509205405 74 0 0.0 2.0 0.00 0.00 0.00 70 1010.1
20260509204527 73 0 0.0 4.0 0.00 0.00 0.00 72 1010.1
20260509203605 73 0 0.0 4.0 0.00 0.00 0.00 71 1010.1
20260509202705 72 0 0.0 4.0 0.00 0.00 0.00 72 1010.2
20260509201805 72 0 0.0 4.0 0.00 0.00 0.00 71 1010.2
20260509200906 72 0 0.0 4.0 0.00 0.00 0.00 72 1010.2
20260509200005 72 0 0.0 4.0 0.00 0.00 0.00 72 1010.3
20260509195405 72 0 0.0 2.0 0.00 0.00 0.00 71 1010.5
20260509194505 72 0 0.0 4.0 0.00 0.00 0.00 72 1010.5
20260509193606 73 0 0.0 6.0 0.00 0.00 0.00 71 1010.6
20260509192706 73 0 0.0 6.0 0.00 0.00 0.00 70 1010.7
20260509191805 72 0 0.0 10.0 0.00 0.00 0.00 70 1010.9
20260509190905 72 0 0.0 10.0 0.00 0.00 0.00 69 1010.8
20260509190006 74 0 0.0 6.0 0.00 0.00 0.00 67 1010.9
20260509185405 74 0 0.0 6.0 0.00 0.00 0.00 65 1010.8
20260509184505 76 244 3.0 6.0 0.00 0.00 0.00 63 1010.8
20260509183605 76 0 0.0 8.0 0.00 0.00 0.00 63 1010.7
20260509182705 76 0 0.0 6.0 0.00 0.00 0.00 62 1010.7
20260509181806 76 0 0.0 10.0 0.00 0.00 0.00 61 1010.9
20260509180906 76 0 0.0 4.0 0.00 0.00 0.00 62 1011.2
20260509180006 74 0 0.0 6.0 0.00 0.00 0.00 61 1011.4
20260509175405 75 0 0.0 10.0 0.00 0.00 0.00 60 1011.5
20260509174505 75 248 3.0 10.0 0.00 0.00 0.00 58 1011.6
20260509173605 76 0 0.0 4.0 0.00 0.00 0.00 58 1011.6
20260509172705 75 0 0.0 6.0 0.00 0.00 0.00 59 1011.6
20260509171805 74 231 3.0 8.0 0.00 0.00 0.00 57 1011.8
20260509170926 74 0 0.0 12.0 0.00 0.00 0.00 59 1012.0
20260509170005 74 248 3.0 12.0 0.00 0.00 0.00 58 1011.9
20260509165405 75 0 0.0 10.0 0.00 0.00 0.00 61 1012.1
20260509164505 75 0 0.0 12.0 0.00 0.00 0.00 60 1012.1
20260509160905 73 236 3.0 12.0 0.00 0.00 0.00 60 1012.3
20260509160006 74 240 3.0 6.0 0.00 0.00 0.00 61 1012.4
20260509155405 74 264 3.0 10.0 0.00 0.00 0.00 61 1012.4
20260509154505 74 267 3.0 14.0 0.00 0.00 0.00 60 1012.4
20260509153605 74 244 3.0 10.0 0.00 0.00 0.00 60 1012.2
20260509152705 74 23 3.0 14.0 0.00 0.00 0.00 63 1012.3